TimeCDT,TemperatureF,Dew PointF,Humidity,Sea Level PressureIn,VisibilityMPH,Wind Direction,Wind SpeedMPH,Gust SpeedMPH,PrecipitationIn,Events,Conditions,WindDirDegrees,DateUTC
12:52 AM,34.0,24.1,67,30.06,10.0,NW,17.3,31.1,N/A,,Clear,310,2013-03-31 05:52:00
1:52 AM,33.1,24.1,70,30.07,10.0,NW,17.3,31.1,N/A,,Clear,310,2013-03-31 06:52:00
2:52 AM,30.9,23.0,72,30.07,10.0,NW,12.7,23.0,N/A,,Clear,310,2013-03-31 07:52:00
3:52 AM,30.0,21.9,72,30.06,10.0,NW,11.5,-,N/A,,Clear,310,2013-03-31 08:52:00
4:52 AM,28.9,21.0,72,30.06,10.0,NW,5.8,-,N/A,,Clear,310,2013-03-31 09:52:00
5:52 AM,28.0,21.0,75,30.08,10.0,NNW,6.9,-,N/A,,Clear,330,2013-03-31 10:52:00
6:30 AM,28.0,21.0,75,30.05,10.0,NW,9.2,-,N/A,,Overcast,320,2013-03-31 11:30:00
6:52 AM,28.0,21.0,75,30.11,10.0,NNW,11.5,-,N/A,,Overcast,330,2013-03-31 11:52:00
7:52 AM,28.0,21.9,78,30.13,10.0,North,8.1,-,N/A,,Overcast,360,2013-03-31 12:52:00
8:52 AM,27.0,18.0,69,30.15,10.0,NE,9.2,-,N/A,,Overcast,50,2013-03-31 13:52:00
9:16 AM,27.0,16.0,63,30.10,10.0,NE,11.5,-,N/A,,Overcast,40,2013-03-31 14:16:00
9:49 AM,26.6,15.8,64,30.09,10.0,NE,10.4,-,N/A,,Overcast,40,2013-03-31 14:49:00
9:52 AM,27.0,16.0,63,30.16,10.0,NE,10.4,-,N/A,,Overcast,40,2013-03-31 14:52:00
10:27 AM,28.0,18.0,66,30.10,10.0,NE,9.2,-,N/A,,Mostly Cloudy,40,2013-03-31 15:27:00
10:52 AM,28.0,19.0,69,30.16,10.0,NE,8.1,-,N/A,,Mostly Cloudy,50,2013-03-31 15:52:00
11:52 AM,30.0,19.9,66,30.16,10.0,ENE,6.9,-,N/A,,Mostly Cloudy,60,2013-03-31 16:52:00
12:52 PM,30.0,19.0,64,30.17,10.0,NNE,9.2,-,N/A,,Overcast,30,2013-03-31 17:52:00
1:52 PM,30.0,19.9,66,30.19,10.0,NNE,12.7,-,N/A,,Overcast,20,2013-03-31 18:52:00
2:52 PM,30.9,19.0,61,30.21,9.0,North,10.4,-,0.00,,Overcast,360,2013-03-31 19:52:00
3:10 PM,30.9,19.0,61,30.14,9.0,North,10.4,-,0.00,,Overcast,350,2013-03-31 20:10:00
3:52 PM,30.9,16.0,54,30.22,10.0,North,10.4,-,0.00,,Overcast,10,2013-03-31 20:52:00
4:52 PM,32.0,15.1,50,30.23,10.0,NNE,15.0,20.7,N/A,,Overcast,20,2013-03-31 21:52:00
5:52 PM,30.9,10.9,43,30.25,10.0,NNW,15.0,19.6,N/A,,Clear,340,2013-03-31 22:52:00
6:52 PM,28.9,10.9,47,30.27,10.0,North,15.0,-,N/A,,Clear,350,2013-03-31 23:52:00
7:52 PM,27.0,12.0,53,30.29,10.0,North,9.2,-,N/A,,Clear,350,2013-04-01 00:52:00
8:52 PM,24.1,10.9,57,30.31,10.0,North,11.5,-,N/A,,Clear,360,2013-04-01 01:52:00
9:52 PM,23.0,10.9,60,30.33,10.0,North,8.1,-,N/A,,Clear,10,2013-04-01 02:52:00
10:52 PM,21.9,12.0,66,30.34,10.0,NNW,6.9,-,N/A,,Clear,330,2013-04-01 03:52:00
11:52 PM,19.9,12.9,74,30.34,10.0,NW,6.9,-,N/A,,Clear,320,2013-04-01 04:52:00